EW2309 Weather Reports


Display with metric or nautical units.
time (UTC)temp
F
wind
direction
speed
MPH
gust
MPH
rain 1hr
in
rain 24hr
in
rain mn
in
humidity
%
barometer
mb
20260901040031 74 158 0.0 0.0 0.00 0.00 0.00 81 1017.7
20260901034533 75 158 0.0 0.0 0.00 0.00 0.00 81 1017.7
20260901033013 75 158 0.0 0.0 0.00 0.00 0.00 80 1017.7
20260901031515 75 158 0.0 0.0 0.00 0.00 0.00 79 1017.8
20260901030056 76 158 0.0 0.0 0.00 0.00 0.00 78 1017.8
20260901024600 76 158 0.0 0.0 0.00 0.00 0.00 78 1017.8
20260901023041 76 158 0.0 0.0 0.00 0.00 0.00 79 1017.8
20260901021545 76 158 0.0 0.0 0.00 0.00 0.00 78 1017.7
20260901020040 77 158 0.0 0.0 0.00 0.00 0.00 78 1017.7
20260901014518 77 158 0.0 0.0 0.00 0.00 0.00 79 1017.5
20260901013109 77 158 0.0 0.0 0.00 0.00 0.00 79 1017.4
20260901011600 78 158 0.0 0.0 0.00 0.00 0.00 77 1017.2
20260901010044 78 158 0.0 0.0 0.00 0.00 0.00 76 1017.0
20260901004543 79 158 0.0 0.0 0.00 0.00 0.00 75 1016.7
20260901003023 80 158 0.0 0.0 0.00 0.00 0.00 75 1016.7
20260901001526 81 158 0.0 0.0 0.00 0.00 0.00 74 1016.6
20260901000010 82 158 0.0 0.0 0.00 0.00 0.00 73 1016.7
20260831234510 83 158 0.0 0.0 0.00 0.00 0.00 70 1016.7
20260831233012 84 158 0.0 0.0 0.00 0.00 0.00 66 1016.7
20260831231507 85 158 0.0 0.0 0.00 0.00 0.00 65 1016.7
20260831230005 86 158 0.0 0.0 0.00 0.00 0.00 64 1016.9
20260831224506 87 158 0.0 0.0 0.00 0.00 0.00 62 1016.9
20260831223006 87 158 0.0 0.0 0.00 0.00 0.00 61 1017.0
20260831221504 88 158 0.0 0.0 0.00 0.00 0.00 61 1016.9
20260831220107 88 158 0.0 0.0 0.00 0.00 0.00 60 1016.9
20260831214548 89 158 0.0 2.0 0.00 0.00 0.00 56 1017.1
20260831213033 90 158 1.0 3.0 0.00 0.00 0.00 58 1017.2
20260831211525 91 255 1.0 3.0 0.00 0.00 0.00 53 1017.3
20260831210007 91 242 1.0 3.0 0.00 0.00 0.00 54 1017.3
20260831204511 91 258 1.0 4.0 0.00 0.00 0.00 55 1017.4
20260831203104 91 96 0.0 0.0 0.00 0.00 0.00 58 1017.5
20260831201550 89 106 0.0 0.0 0.00 0.00 0.00 61 1017.7
20260831200045 87 108 1.0 2.0 0.00 0.00 0.00 68 1017.9
20260831194555 87 108 0.0 1.0 0.00 0.00 0.00 64 1018.1
20260831193028 89 108 0.0 2.0 0.00 0.00 0.00 62 1018.4
20260831191531 91 110 1.0 3.0 0.00 0.00 0.00 57 1018.5
20260831190023 90 178 1.0 4.0 0.00 0.00 0.00 58 1018.6
20260831184525 88 168 0.0 3.0 0.00 0.00 0.00 62 1018.7
20260831183018 87 61 1.0 3.0 0.00 0.00 0.00 65 1018.9
20260831181522 87 61 0.0 2.0 0.00 0.00 0.00 64 1019.0
20260831180016 88 24 1.0 4.0 0.00 0.00 0.00 65 1019.1
20260831174606 86 257 1.0 3.0 0.00 0.00 0.00 68 1019.4
20260831173101 85 140 0.0 2.0 0.00 0.00 0.00 70 1019.4
20260831171535 85 140 0.0 2.0 0.00 0.00 0.00 72 1019.5
20260831170034 84 141 1.0 3.0 0.00 0.00 0.00 75 1019.6
20260831164515 82 275 0.0 0.0 0.00 0.00 0.00 78 1019.7
20260831163015 83 273 0.0 0.0 0.00 0.00 0.00 76 1020.0
20260831161556 84 273 0.0 0.0 0.00 0.00 0.00 74 1020.1
20260831160056 85 265 0.0 0.0 0.00 0.00 0.00 71 1020.1
20260831154535 84 263 0.0 0.0 0.00 0.00 0.00 74 1020.1
20260831153030 82 288 0.0 2.0 0.00 0.00 0.00 77 1020.1
20260831151509 80 232 1.0 4.0 0.00 0.00 0.00 78 1020.1
20260831150013 79 238 1.0 5.0 0.00 0.00 0.00 82 1020.2
20260831144555 78 225 0.0 3.0 0.00 0.00 0.00 82 1020.2
20260831143046 77 215 0.0 4.0 0.00 0.00 0.00 83 1020.2
20260831141526 76 211 0.0 5.0 0.00 0.00 0.00 85 1020.1
20260831140024 74 279 0.0 2.0 0.00 0.00 0.00 89 1020.1
20260831134519 73 279 0.0 4.0 0.00 0.00 0.00 91 1020.0
20260831133016 72 319 0.0 0.0 0.00 0.00 0.00 93 1020.0
20260831131516 71 319 0.0 0.0 0.00 0.00 0.00 93 1020.0
20260831130016 71 319 0.0 0.0 0.00 0.00 0.00 93 1020.0
20260831124510 71 319 0.0 0.0 0.00 0.00 0.00 93 1019.9
20260831123007 71 319 0.0 0.0 0.00 0.00 0.00 94 1019.5
20260831121548 70 319 0.0 0.0 0.00 0.00 0.00 93 1019.4
20260831120046 70 319 0.0 0.0 0.00 0.00 0.00 93 1019.3
20260831114532 70 319 0.0 0.0 0.00 0.00 0.00 92 1019.3
20260831113026 70 319 0.0 1.0 0.00 0.00 0.00 92 1019.2
20260831111507 70 319 0.0 0.0 0.00 0.00 0.00 91 1019.0
20260831110006 70 319 0.0 1.0 0.00 0.00 0.00 91 1018.8
20260831104553 70 319 0.0 0.0 0.00 0.00 0.00 91 1018.7
20260831103057 70 319 0.0 0.0 0.00 0.00 0.00 91 1018.4
20260831101549 70 319 0.0 0.0 0.00 0.00 0.00 91 1018.4
20260831100054 70 319 0.0 0.0 0.00 0.00 0.00 90 1018.2
20260831094547 70 319 0.0 0.0 0.00 0.00 0.00 90 1018.2
20260831093048 70 319 0.0 0.0 0.00 0.00 0.00 90 1018.0
20260831091551 70 319 0.0 0.0 0.00 0.00 0.00 90 1018.0
20260831090046 71 319 0.0 0.0 0.00 0.00 0.00 89 1017.9
20260831084538 71 319 0.0 0.0 0.00 0.00 0.00 89 1017.8
20260831083027 71 319 0.0 0.0 0.00 0.00 0.00 89 1017.8
20260831081518 71 319 0.0 0.0 0.00 0.00 0.00 89 1017.8
20260831080009 71 319 0.0 0.0 0.00 0.00 0.00 88 1017.9
20260831074551 71 319 0.0 0.0 0.00 0.00 0.00 88 1017.9
20260831073129 72 319 0.0 0.0 0.00 0.00 0.00 88 1017.9
20260831071532 72 319 0.0 0.0 0.00 0.00 0.00 87 1017.9
20260831070034 72 319 0.0 0.0 0.00 0.00 0.00 87 1017.9
20260831064528 72 319 0.0 0.0 0.00 0.00 0.00 87 1017.9
20260831063019 72 319 0.0 0.0 0.00 0.00 0.00 86 1018.1
20260831061556 73 319 0.0 0.0 0.00 0.00 0.00 86 1018.1
20260831060104 73 319 0.0 0.0 0.00 0.00 0.00 87 1018.1
20260831054541 73 319 0.0 0.0 0.00 0.00 0.00 87 1018.1
20260831053038 73 319 0.0 0.0 0.00 0.00 0.00 86 1018.1
20260831051522 73 319 0.0 0.0 0.00 0.00 0.00 86 1018.1
20260831050036 73 319 0.0 0.0 0.00 0.00 0.00 86 1018.1
20260831044501 73 319 0.0 0.0 0.00 0.00 0.00 85 1018.1
20260831043001 73 319 0.0 0.0 0.00 0.00 0.00 85 1018.1
20260831041548 74 319 0.0 0.0 0.00 0.00 0.00 85 1018.2